Total_Precipitation_Accumulation
0.01 0.01 0.01 0.01 0.01 0.02 0.03 0.06 0.06 0.06 0.09 0.07 0.04 0.06 0.09 0.15 0.18 0.27 0.17 0.22 0.18 0.11 0.23 0.24 0.17 0.18 0.17 0.12 0.07 0.04 0.02 0.02 0.03 0.04 0.04 0.10 0.15 0.17 0.09 0.03 0.02 0.01 0.01
0.01 0.01 0.00 0.01 0.01 0.01 0.01 0.02 0.05 0.07 0.09 0.12 0.09 0.10 0.10 0.11 0.19 0.24 0.17 0.16 0.12 0.09 0.11 0.12 0.12 0.13 0.13 0.13 0.06 0.03 0.02 0.02 0.03 0.03 0.04 0.06 0.13 0.18 0.10 0.05 0.03 0.03 0.04
0.01 0.02 0.01 0.01 0.02 0.02 0.02 0.02 0.05 0.06 0.07 0.09 0.05 0.06 0.05 0.05 0.07 0.11 0.11 0.09 0.08 0.09 0.09 0.08 0.08 0.08 0.09 0.10 0.04 0.03 0.01 0.01 0.01 0.02 0.03 0.03 0.06 0.10 0.07 0.05 0.04 0.03 0.04
0.03 0.05 0.03 0.02 0.05 0.04 0.03 0.04 0.05 0.07 0.15 0.18 0.07 0.03 0.03 0.02 0.01 0.02 0.03 0.05 0.08 0.06 0.08 0.08 0.07 0.07 0.09 0.08 0.04 0.03 0.01 0.01 0.01 0.01 0.01 0.02 0.05 0.09 0.08 0.04 0.03 0.03 0.02
0.06 0.09 0.08 0.09 0.09 0.06 0.05 0.05 0.05 0.09 0.13 0.19 0.14 0.07 0.07 0.06 0.02 0.02 0.01 0.01 0.03 0.07 0.09 0.07 0.04 0.05 0.09 0.08 0.05 0.04 0.03 0.03 0.03 0.03 0.03 0.04 0.05 0.10 0.09 0.05 0.04 0.03 0.03
0.14 0.17 0.13 0.13 0.13 0.10 0.10 0.12 0.11 0.13 0.11 0.17 0.17 0.10 0.08 0.04 0.03 0.02 0.04 0.03 0.01 0.01 0.03 0.05 0.07 0.04 0.04 0.04 0.05 0.06 0.06 0.07 0.06 0.04 0.04 0.04 0.05 0.09 0.09 0.06 0.05 0.05 0.04
0.34 0.34 0.24 0.23 0.18 0.13 0.10 0.13 0.14 0.09 0.08 0.18 0.17 0.10 0.02 0.01 0.01 0.00 0.02 0.02 0.01 0.00 0.01 0.04 0.06 0.05 0.03 0.01 0.04 0.06 0.07 0.08 0.06 0.05 0.05 0.05 0.05 0.07 0.11 0.10 0.08 0.08 0.06
0.45 0.38 0.33 0.26 0.19 0.14 0.09 0.08 0.07 0.05 0.03 0.10 0.15 0.13 0.04 0.01 0.00 0.00 0.00 0.00 0.00 0.00 0.02 0.04 0.06 0.08 0.06 0.02 0.03 0.03 0.05 0.08 0.11 0.10 0.08 0.06 0.04 0.04 0.09 0.12 0.10 0.10 0.09
0.71 0.59 0.46 0.32 0.19 0.12 0.07 0.05 0.05 0.04 0.04 0.07 0.17 0.23 0.12 0.04 0.03 0.01 0.01 0.01 0.01 0.03 0.04 0.04 0.04 0.04 0.03 0.02 0.01 0.02 0.02 0.03 0.08 0.11 0.09 0.05 0.02 0.01 0.03 0.09 0.14 0.13 0.12
1.08 0.87 0.64 0.41 0.22 0.11 0.06 0.04 0.05 0.09 0.10 0.07 0.12 0.18 0.19 0.12 0.08 0.04 0.04 0.05 0.05 0.03 0.02 0.02 0.01 0.01 0.01 0.01 0.01 0.02 0.01 0.01 0.02 0.05 0.06 0.05 0.03 0.02 0.02 0.07 0.17 0.18 0.17
1.13 0.93 0.67 0.44 0.24 0.10 0.04 0.03 0.04 0.09 0.12 0.09 0.09 0.11 0.16 0.18 0.15 0.12 0.08 0.11 0.11 0.05 0.02 0.00 0.00 0.00 0.00 0.00 0.00 0.01 0.02 0.01 0.01 0.01 0.01 0.02 0.02 0.02 0.03 0.08 0.17 0.25 0.25
0.77 0.63 0.45 0.29 0.17 0.08 0.04 0.02 0.03 0.05 0.06 0.08 0.11 0.12 0.15 0.19 0.24 0.26 0.21 0.20 0.17 0.10 0.04 0.02 0.01 0.01 0.00 0.00 0.01 0.04 0.03 0.02 0.03 0.04 0.04 0.03 0.01 0.01 0.02 0.08 0.15 0.25 0.32
0.34 0.30 0.24 0.19 0.13 0.08 0.04 0.02 0.02 0.02 0.02 0.04 0.07 0.12 0.20 0.28 0.30 0.29 0.24 0.18 0.12 0.09 0.06 0.03 0.01 0.02 0.02 0.03 0.06 0.06 0.05 0.07 0.08 0.07 0.06 0.04 0.02 0.02 0.02 0.05 0.13 0.23 0.32
0.13 0.12 0.13 0.13 0.11 0.07 0.03 0.02 0.02 0.01 0.01 0.02 0.03 0.08 0.12 0.15 0.17 0.21 0.23 0.20 0.16 0.13 0.13 0.10 0.04 0.03 0.08 0.11 0.16 0.15 0.16 0.13 0.08 0.05 0.03 0.02 0.01 0.02 0.01 0.03 0.09 0.15 0.24
0.07 0.07 0.09 0.10 0.09 0.07 0.04 0.03 0.03 0.02 0.02 0.03 0.05 0.07 0.08 0.08 0.08 0.10 0.15 0.21 0.22 0.16 0.12 0.12 0.07 0.06 0.11 0.17 0.22 0.20 0.20 0.13 0.04 0.02 0.02 0.01 0.01 0.01 0.01 0.05 0.08 0.10 0.22
0.03 0.04 0.05 0.05 0.05 0.04 0.02 0.01 0.02 0.02 0.03 0.04 0.08 0.13 0.13 0.10 0.09 0.11 0.16 0.24 0.27 0.21 0.12 0.08 0.06 0.06 0.11 0.20 0.18 0.14 0.14 0.10 0.04 0.03 0.03 0.03 0.03 0.04 0.08 0.15 0.20 0.22 0.26
0.02 0.03 0.03 0.02 0.02 0.01 0.01 0.01 0.01 0.02 0.02 0.02 0.04 0.08 0.08 0.07 0.07 0.09 0.11 0.15 0.18 0.18 0.14 0.11 0.10 0.09 0.10 0.20 0.18 0.13 0.10 0.08 0.07 0.04 0.02 0.02 0.03 0.08 0.15 0.20 0.27 0.30 0.27
0.03 0.02 0.01 0.01 0.00 0.01 0.01 0.01 0.00 0.01 0.01 0.01 0.01 0.03 0.03 0.02 0.03 0.03 0.05 0.07 0.10 0.13 0.14 0.12 0.11 0.10 0.12 0.19 0.22 0.16 0.12 0.11 0.11 0.04 0.02 0.02 0.04 0.05 0.08 0.10 0.17 0.28 0.33
0.02 0.01 0.01 0.01 0.01 0.01 0.01 0.01 0.01 0.01 0.00 0.01 0.01 0.00 0.01 0.01 0.02 0.02 0.01 0.01 0.01 0.03 0.09 0.13 0.14 0.13 0.13 0.14 0.18 0.20 0.18 0.20 0.16 0.08 0.04 0.03 0.04 0.05 0.05 0.05 0.09 0.17 0.27
0.00 0.00 0.01 0.01 0.01 0.01 0.01 0.01 0.01 0.00 0.00 0.00 0.00 0.00 0.01 0.01 0.01 0.00 0.00 0.00 0.00 0.03 0.07 0.11 0.14 0.15 0.15 0.14 0.18 0.26 0.30 0.33 0.25 0.16 0.11 0.08 0.06 0.04 0.03 0.03 0.04 0.09 0.18
0.00 0.00 0.00 0.00 0.00 0.00 0.00 0.00 0.00 0.00 0.00 0.00 0.00 0.00 0.00 0.00 0.00 0.00 0.00 0.00 0.00 0.01 0.02 0.04 0.06 0.07 0.09 0.10 0.12 0.20 0.32 0.43 0.37 0.27 0.22 0.20 0.17 0.13 0.07 0.04 0.02 0.03 0.08
0.00 0.00 0.00 0.00 0.00 0.00 0.00 0.00 0.00 0.00 0.00 0.00 0.00 0.00 0.00 0.00 0.00 0.00 0.00 0.00 0.00 0.00 0.01 0.01 0.01 0.01 0.03 0.07 0.09 0.19 0.33 0.42 0.50 0.48 0.40 0.35 0.30 0.25 0.18 0.11 0.08 0.04 0.03
0.00 0.00 0.00 0.00 0.00 0.00 0.00 0.00 0.00 0.00 0.00 0.00 0.00 0.00 0.00 0.00 0.00 0.00 0.00 0.00 0.00 0.00 0.00 0.01 0.01 0.01 0.01 0.04 0.09 0.19 0.32 0.48 0.63 0.69 0.62 0.57 0.43 0.33 0.27 0.20 0.14 0.08 0.05
0.00 0.00 0.00 0.00 0.00 0.00 0.00 0.00 0.00 0.00 0.00 0.00 0.00 0.00 0.00 0.00 0.00 0.00 0.00 0.00 0.00 0.00 0.00 0.00 0.00 0.00 0.00 0.01 0.06 0.10 0.17 0.28 0.45 0.60 0.68 0.77 0.73 0.57 0.42 0.31 0.24 0.16 0.10
0.00 0.00 0.00 0.00 0.00 0.00 0.00 0.00 0.00 0.00 0.00 0.00 0.00 0.00 0.00 0.00 0.00 0.00 0.00 0.00 0.00 0.00 0.00 0.00 0.00 0.00 0.00 0.00 0.01 0.02 0.03 0.04 0.08 0.15 0.25 0.43 0.60 0.65 0.64 0.55 0.41 0.29 0.19
0.01 0.00 0.00 0.00 0.00 0.00 0.00 0.00 0.00 0.00 0.00 0.00 0.00 0.00 0.00 0.00 0.00 0.00 0.00 0.00 0.00 0.00 0.00 0.00 0.00 0.00 0.00 0.00 0.00 0.00 0.01 0.02 0.02 0.03 0.04 0.09 0.19 0.29 0.42 0.50 0.46 0.39 0.28